Regional Weather Roundup
Issued by NWS

Home | Current Version | Previous Version | Text Only | Print | Product List | Glossary Off
Versions: 1 2 3 4 5 6 7 8 9 10 11 12 13 14 15 16 17 18 19 20 21 22 23 24 25 26 27 28 29 30 31 32 33 34 35 36 37 38 39 40 41 42 43 44 45 46 47 48 49 50

014
ASUS43 KMPX 222201
RWRMN
WEATHER ROUNDUP FOR MINNESOTA
NATIONAL WEATHER SERVICE TWIN CITIES/CHANHASSEN MN
400 PM CST THU FEB 22 2018


NOTE: "FAIR" INDICATES FEW OR NO CLOUDS BELOW 12,000 FEET WITH NO
SIGNIFICANT WEATHER AND/OR OBSTRUCTIONS TO VISIBILITY. N/A MEANS
CURRENT SKY AND/OR WEATHER CONDITIONS ARE NOT AVAILABLE.

MNZ060>063-068>070-222300-
   Twin Cities Metro

CITY           SKY/WX    TMP DP  RH WIND       PRES   REMARKS
TWIN CITIES    CLOUDY    30  13  49 E9        30.41F WCI  22
ST PAUL        CLOUDY    30  13  49 NE7       30.43F WCI  23
CRYSTAL        CLOUDY    29  12  49 E7        30.41F WCI  22
BLAINE         CLOUDY    30  12  47 E12       30.41F WCI  21
LAKEVILLE      PTSUNNY   27  18  69 NE7       30.40F WCI  19
EDEN PRAIRIE   CLOUDY    30  15  53 E12       30.39F WCI  20
SOUTH ST PAUL  CLOUDY    30  11  45 E7        30.41F WCI  23
LAKE ELMO      PTSUNNY   30  12  47 E8        30.44S WCI  23
$$
MNZ001>005-007-008-013>017-022>024-027-028-222300-
   Northwest Minnesota

CITY           SKY/WX    TMP DP  RH WIND       PRES   REMARKS
BEMIDJI        CLOUDY    27   4  37 S6        30.35F WCI  20
HALLOCK        FAIR      18  10  73 S16       30.34F WCI   3
ROSEAU         FAIR      21  12  68 SW12      30.34S WCI   9
WARROAD        FAIR      23  12  63 SW13      30.35S WCI  11
THIEF RVR FALL FAIR      22  12  65 S9        30.35  WCI  12
CROOKSTON      FAIR      21  16  79 S13       30.37F WCI   9
FOSSTON        FAIR      27   9  46 S7        30.35F WCI  19
DETROIT LAKES  PTSUNNY   25   9  50 SE8       30.34F WCI  16
MOORHEAD       PTSUNNY   21  14  73 SE10      30.36F WCI  10
PARK RAPIDS    CLOUDY    24   6  46 S5        30.35F WCI  18
MAHNOMEN       MOCLDY    24  10  55 S8        30.36F WCI  15
$$
MNZ006-009>011-018-025>026-222300-
   North Central Minnesota

CITY           SKY/WX    TMP DP  RH WIND       PRES   REMARKS
BAUDETTE       FAIR      24   2  38 S12       30.34S WCI  13
FLAG ISLAND    FAIR      21  10  63 SW18      30.32F WCI   6
INTL FALLS     FAIR      29   3  33 VRB3      30.35F
WASKISH        PTSUNNY   25   5  42 CALM      30.37F
BIG FORK       CLOUDY    27   9  46 S5        30.38S WCI  21
LONGVILLE      CLOUDY    25   0  33 SE6       30.39F WCI  18
GRAND RAPIDS   CLOUDY    24   5  44 S8        30.41F WCI  15
CRANE LAKE     CLOUDY    28   0  29 S6        30.40F WCI  22
ORR            CLOUDY    28   0  29 S5        30.35F WCI  23
COOK             N/A     28   1  31 S8        30.39F WCI  20
WALKER         CLOUDY    26   1  34 S7        30.37F WCI  18
$$
MNZ012-019>021-037-222300-
   Northeast Minnesota

CITY           SKY/WX    TMP DP  RH WIND       PRES   REMARKS
DULUTH         CLOUDY    22   8  55 E7        30.41F WCI  13
ELY            CLOUDY    28   3  34 S7        30.38F WCI  21
HIBBING        CLOUDY    26   2  35 S6        30.39F WCI  19
EVELETH        FAIR      28   3  34 S8        30.41F WCI  20
DULUTH HARBOR  PTSUNNY   23  16  74 E3        30.49F
TWO HARBORS    FAIR      28  12  50 E5        30.43F WCI  23
GRAND MARAIS     N/A     24  12  60 VRB5      30.50F WCI  18
G MARAIS ARPRT FAIR      19   5  53 SE3       30.41F
$$
MNZ029>031-032-039>041-046>048-054>057-064-222300-
   West Central Minnesota

CITY           SKY/WX    TMP DP  RH WIND       PRES   REMARKS
FERGUS FALLS   CLOUDY    25  10  54 E8        30.34F WCI  16
WHEATON        CLOUDY    25  18  74 E10       30.35F WCI  15
MORRIS         LGT SNOW  25  18  74 E12       30.33F WCI  14
ALEXANDRIA     CLOUDY    23  14  68 E10       30.35F WCI  12
ELBOW LAKE     CLOUDY    24  13  65 SE9       30.35S WCI  14
WADENA         CLOUDY    21   7  53 E6        30.35F WCI  14
GLENWOOD       FLURRIES  23  18  80 E10       30.35F WCI  12
APPLETON       CLOUDY    27  19  74 E10       30.33F WCI  17
BENSON         CLOUDY    27  18  69 SE8       30.36F WCI  18
MADISON        SNOW      27  21  80 SE7       30.34F VSB 1/2 WCI  19
WILLMAR        PTSUNNY   25  19  80 E8        30.38S WCI  16
$$
MNZ033>034-036-042>043-049>051-058-059-222300-
   Central Minnesota

CITY           SKY/WX    TMP DP  RH WIND       PRES   REMARKS
ST CLOUD       CLOUDY    23  13  65 E7        30.40F WCI  15
PAYNESVILLE    CLOUDY    25  18  74 E8        30.37F WCI  16
AITKIN         CLOUDY    23   9  54 S7        30.40F WCI  15
PINE RIVER     CLOUDY    21   7  53 SE5       30.41F WCI  15
BRAINERD       CLOUDY    25   7  46 E5        30.40F WCI  19
STAPLES        CLOUDY    21   7  53 SE6       30.37F WCI  14
LONG PRAIRIE   CLOUDY    23  12  63 NE5       30.37F WCI  17
LITTLE FALLS   CLOUDY    23   5  46 E5        30.40F WCI  17
LITCHFIELD     PTSUNNY   25  18  74 E7        30.38F WCI  17
BUFFALO        PTSUNNY   27  14  58 E7        30.41S WCI  20
MAPLE LAKE     PTSUNNY   27  16  63 E10       30.40F WCI  17
HUTCHINSON     CLOUDY    28  20  70 E9        30.38F WCI  19
$$
MNZ037-044-045-052-053-222300-
   East Central Minnesota

CITY           SKY/WX    TMP DP  RH WIND       PRES   REMARKS
PRINCETON      CLOUDY    27  10  50 E5        30.41F WCI  21
CAMBRIDGE        N/A     30  12  47 E5        30.43F WCI  25
RUSH CITY      CLOUDY    26  10  49 CALM      30.43F
MOOSE LAKE     CLOUDY    28   5  37 SE5       30.42F WCI  23
HINCKLEY       CLOUDY    27  10  50 NE3       30.44F
CLOQUET        CLOUDY    25   5  42 SE6       30.42F WCI  18
MCGREGOR       CLOUDY    28   3  34 SE7       30.41F WCI  21
$$
MNZ071>073-080-081-089-090-097-098-222300-
   Southwest Minnesota

CITY           SKY/WX    TMP DP  RH WIND       PRES   REMARKS
MONTEVIDEO     LGT SNOW  25  21  86 SE9       30.34F WCI  15
GRANITE FALLS  LGT SNOW  28  24  86 NE7       30.36F WCI  20
CANBY          HVY SNOW  24  22  93 E6        30.32F VSB 1/4 WCI  17
MARSHALL       LGT SNOW  24  22  91 E12       30.30F FOG     WCI  13
REDWOOD FALLS  SNOW      24  22  91 NE10      30.32F VSB 1/2 WCI  14
OLIVIA         LGT SNOW  28  23  80 E8        30.34F WCI  20
PIPESTONE      SNOW      23  19  86 E14       30.21F VSB 1/2 WCI  11
WORTHINGTON    LGT SNOW  24  22  91 E15       30.24F FOG     WCI  11
JACKSON        LGT SNOW  28  27  93 SE15      30.27F VSB 3/4 WCI  17
TRACY          LGT SNOW  24  23  96 NE9       30.27F VSB 1   WCI  15
SLAYTON        LGT SNOW  23  21  92 NE10      30.25F WCI  12
$$
MNZ065>067-074>077-082>085-091>093-222300-
   South Central Minnesota

CITY           SKY/WX    TMP DP  RH WIND       PRES   REMARKS
MANKATO        FLURRIES  27  21  78 E15       30.36F WCI  15
NEW ULM        LGT SNOW  27  21  80 E10G16    30.33F WCI  17
ST JAMES       LGT SNOW  27  25  93 E12       30.33F WCI  16
FAIRMONT       LGT SNOW  28  25  88 E16       30.30F FOG     WCI  16
GLENCOE        CLOUDY    29  20  70 E9        30.37F WCI  20
FARIBAULT      FAIR      27  19  74 NE10      30.38S WCI  17
OWATONNA       LGT SNOW  28  21  74 E13       30.36F WCI  18
WASECA         LGT SNOW  30  27  86 E9        30.37F WCI  22
ALBERT LEA     FAIR      28  21  74 E10       30.33F WCI  19
$$
MNZ078>079-086>088-094>096-222300-
   Southeast Minnesota

CITY           SKY/WX    TMP DP  RH WIND       PRES   REMARKS
ROCHESTER      CLOUDY    27  21  78 E12       30.38R WCI  17
RED WING       CLOUDY    30   9  40 E9        30.42F WCI  22
STANTON        CLOUDY    30  17  59 E9        30.39F WCI  22
DODGE CENTER   FLURRIES  27  21  80 E13       30.36F WCI  16
WINONA         CLOUDY    30  19  64 E8        30.44R WCI  23
AUSTIN         CLOUDY    28  21  74 E13       30.34F WCI  18
PRESTON        CLOUDY    28  20  74 E8        30.39F WCI  19
$$
ABBREVIATIONS USED IN REMARKS
   TC - TEMPERATURES IN CELSIUS
  WCI - WIND CHILL INDEX
   HX - HEAT INDEX
  VSB - VISIBILITY
$$




USA.gov is the U.S. government's official web portal to all federal, state and local government web resources and services.